Theta_e
337 338 340 341 339 341 343 344 346 353 347 353 349 349 345 345 344 343 344 341 341 341 341 341 343 343 344 345 345 347 345 347 346 347 343 346 349 350 350 351 351 351 346 349
332 334 339 340 340 341 341 342 348 348 347 348 348 351 347 346 347 344 345 344 342 341 341 342 342 343 344 345 345 346 345 347 347 347 343 347 349 349 349 350 353 351 346 346
332 340 339 339 340 342 341 334 337 347 346 345 350 348 351 349 349 347 345 345 345 342 343 343 343 344 344 345 345 344 346 346 346 343 348 351 353 352 351 353 351 348 351 350
331 337 341 341 341 335 329 330 331 344 342 346 343 350 346 346 345 350 349 345 345 345 344 344 345 345 345 346 346 343 342 347 347 346 350 351 350 351 351 348 347 352 354 350
328 331 337 342 336 336 334 332 331 331 335 342 347 345 347 347 349 346 347 346 344 344 345 346 346 346 347 347 347 346 342 342 345 350 351 351 350 348 350 350 351 352 354 344
330 333 333 334 333 334 333 332 330 329 338 346 346 344 349 349 345 345 343 345 346 344 346 347 346 347 347 347 347 348 347 342 344 345 353 354 352 350 353 351 349 352 349 349
331 331 333 332 331 330 332 328 328 332 340 347 341 343 344 343 345 347 344 342 345 345 344 348 346 347 348 347 348 349 348 347 344 344 347 352 350 350 352 353 352 352 354 353
328 329 329 331 330 331 330 330 329 332 343 348 348 354 351 343 343 344 342 341 344 345 343 344 346 346 348 348 349 350 349 349 346 346 344 346 346 347 350 353 350 352 354 351
326 329 329 330 331 330 329 328 329 327 341 348 349 347 343 344 346 344 345 341 343 346 344 343 344 346 347 349 349 349 349 349 348 347 342 342 344 343 342 351 351 352 354 356
331 329 329 329 329 328 329 327 325 325 343 347 345 347 347 346 348 345 346 343 348 347 345 343 342 345 346 347 348 348 348 349 349 346 342 341 341 342 341 341 343 352 355 357
331 329 328 329 328 325 323 324 325 324 336 346 348 346 346 343 345 346 344 336 337 349 345 344 342 343 346 345 346 346 346 348 348 347 342 340 340 341 342 341 345 352 354 357
332 327 326 328 328 326 328 326 327 328 337 343 345 349 341 341 347 338 340 341 334 347 348 344 344 343 345 344 344 345 346 347 347 346 343 342 345 343 342 341 340 342 346 350
331 330 327 332 334 332 332 330 330 327 333 345 351 354 343 340 337 351 339 337 336 351 353 346 344 343 345 345 344 344 345 346 345 346 345 345 345 347 342 341 341 341 339 341
331 327 327 332 335 331 334 334 331 330 334 343 350 341 342 342 339 359 365 364 364 363 362 356 348 345 346 345 345 344 344 345 345 345 347 349 348 346 346 344 342 341 342 341
332 330 332 335 334 334 335 335 334 333 333 333 347 343 344 338 355 359 360 361 361 360 357 361 356 351 351 351 352 348 347 347 349 347 348 349 349 351 352 352 351 350 351 349
331 331 333 335 334 335 333 335 335 334 338 355 353 353 345 352 355 355 359 357 354 353 355 355 356 358 358 358 357 356 356 357 357 356 358 355 355 356 355 356 356 357 357 356
331 330 333 335 335 335 336 337 336 336 344 352 355 350 345 346 348 352 355 355 351 349 348 344 349 354 355 358 358 357 355 352 353 354 353 355 356 359 359 359 357 358 359 358
328 329 331 333 334 337 336 335 335 336 338 345 347 346 346 346 348 349 351 352 352 348 345 339 340 341 344 351 349 343 344 343 341 343 339 346 352 356 358 358 358 357 355 354
327 328 330 332 333 333 336 339 337 338 340 342 346 345 345 344 349 349 348 350 348 347 343 344 345 344 344 340 337 339 339 340 333 332 340 346 350 353 355 353 355 355 355 356
332 331 331 333 336 335 342 338 337 336 343 340 342 344 343 344 351 349 349 348 348 346 345 345 343 344 343 343 343 337 336 337 338 339 336 341 338 342 352 349 349 348 342 342
340 335 336 333 333 341 339 338 337 337 346 342 341 342 342 342 345 343 344 345 347 346 345 345 346 344 343 344 341 336 335 337 338 338 337 337 336 337 338 336 336 337 339 337
341 341 343 340 338 346 342 340 346 343 341 341 341 341 341 340 340 338 339 340 343 344 344 344 345 345 345 344 344 342 332 336 336 334 338 337 335 335 341 342 336 335 336 336
341 340 342 342 345 341 340 338 338 338 340 340 339 339 339 337 336 338 339 339 340 341 341 342 342 343 345 345 346 343 333 336 334 333 334 334 334 335 338 348 347 348 346 336
342 340 338 339 342 341 337 336 336 335 335 335 334 334 334 335 335 340 340 340 341 341 341 341 340 342 345 345 344 342 338 344 341 337 338 340 338 335 337 336 336 350 347 339
338 340 341 340 338 338 337 337 335 334 334 334 334 334 334 336 341 340 339 339 338 338 339 342 342 340 345 346 344 343 344 341 342 338 341 338 339 339 342 338 340 341 343 345
334 334 335 335 339 341 338 336 334 334 335 336 337 336 340 341 340 338 338 340 341 342 342 346 345 343 343 344 347 342 349 341 334 333 338 337 332 341 341 342 340 336 336 336
Wind_Speed
15 2 6 15 7 12 15 16 14 19 15 12 9 14 25 26 29 28 30 34 31 28 29 25 23 23 22 23 20 17 18 16 14 12 11 12 8 10 10 8 8 3 3 5
7 7 14 13 11 13 16 17 22 19 22 17 16 22 25 32 18 29 28 34 36 33 34 29 28 28 27 25 22 22 21 17 14 9 15 13 8 9 11 11 8 5 6 4
8 4 7 18 19 16 16 9 7 23 11 25 22 4 11 10 17 26 25 35 38 37 40 36 31 35 31 27 22 23 22 21 17 13 16 8 9 7 10 11 11 5 5 4
9 11 11 15 14 9 5 6 8 12 9 6 7 3 4 4 2 24 33 30 33 35 42 39 36 38 34 29 22 19 22 21 17 18 14 13 12 12 9 9 8 8 6 5
13 11 18 13 8 7 6 6 5 7 4 6 5 4 5 6 8 8 13 20 30 31 43 39 41 38 36 31 26 21 22 19 18 22 19 14 12 13 9 9 8 9 7 4
11 16 4 2 6 7 5 7 9 7 6 4 2 2 5 4 4 9 8 10 15 31 37 41 38 40 38 35 30 23 23 18 18 22 21 19 15 15 11 10 9 7 4 1
10 9 5 3 5 10 6 4 5 5 4 2 7 6 7 2 2 11 24 21 19 32 30 41 40 39 38 39 33 26 23 21 19 20 23 22 17 17 16 14 12 9 9 8
6 10 9 5 7 7 7 4 4 4 4 6 4 2 5 6 1 20 41 38 31 32 30 28 36 39 37 39 35 31 27 22 21 18 21 23 21 18 20 18 19 13 10 10
4 12 8 8 5 8 11 5 6 7 7 5 1 3 11 12 13 29 38 32 32 35 32 29 23 37 36 38 37 34 29 25 19 18 19 22 23 23 21 23 17 17 12 8
6 6 3 4 2 5 4 3 6 4 5 3 3 5 6 2 6 2 13 14 10 6 30 29 27 24 37 32 36 34 28 26 21 16 19 20 22 22 22 20 23 21 16 10
5 0 9 5 5 7 5 5 4 2 8 5 4 4 8 7 3 12 22 41 7 13 12 29 30 22 33 32 31 34 29 27 23 17 18 21 20 21 22 20 22 25 23 18
6 2 6 8 10 9 6 8 5 4 3 5 5 3 16 12 12 16 10 22 17 35 19 29 29 30 30 34 31 34 32 28 23 17 20 22 19 21 23 23 22 23 24 27
5 5 5 9 12 17 5 9 5 3 5 4 5 5 12 21 22 14 18 13 13 11 26 30 29 29 30 33 32 34 33 32 26 23 20 21 21 21 21 23 23 24 24 27
4 4 2 3 9 12 7 14 7 3 5 2 9 15 12 17 6 10 13 15 15 26 24 12 30 27 19 16 27 32 33 32 30 27 23 22 20 23 23 22 23 24 26 26
1 5 7 5 5 4 3 6 17 4 3 7 23 18 19 7 4 5 12 14 19 22 24 25 17 15 16 29 36 30 31 33 34 32 28 26 21 20 23 24 25 25 25 26
9 6 9 8 7 10 7 9 10 6 10 23 20 9 11 20 17 12 11 14 18 16 14 18 24 23 22 23 21 21 21 21 20 21 17 18 18 17 16 19 22 25 27 29
7 6 6 7 10 12 6 1 12 7 17 19 13 12 9 9 13 13 15 14 15 14 14 20 15 6 9 10 9 9 8 4 11 11 7 8 13 17 19 21 23 23 26 28
5 5 2 4 7 5 3 6 4 7 10 16 17 11 15 16 17 11 11 13 13 11 11 20 21 18 15 3 2 5 4 8 13 26 23 18 17 21 26 27 27 30 32 31
7 2 2 2 2 7 3 7 4 4 9 10 15 15 19 16 22 16 13 11 9 8 9 11 11 11 12 12 13 10 3 4 8 23 25 14 15 20 24 29 27 28 26 29
4 1 4 3 1 3 1 8 16 6 5 14 19 14 13 10 5 3 8 7 6 4 7 7 8 5 8 11 12 11 3 3 6 10 14 13 15 19 20 20 19 18 15 14
3 2 2 4 3 3 5 11 12 3 4 14 19 22 23 10 10 6 3 5 3 3 3 6 1 7 10 12 5 7 5 8 8 8 13 18 16 10 11 14 18 29 33 25
2 2 2 3 3 3 15 4 4 6 11 11 11 9 10 7 4 4 3 1 3 5 5 5 6 7 7 12 10 9 6 7 10 12 12 14 13 12 13 11 4 7 9 14
2 4 2 2 5 3 10 16 10 13 8 5 4 4 7 4 2 7 8 5 3 3 3 1 1 2 3 8 12 10 5 5 11 13 11 12 15 13 13 11 9 11 11 8
5 10 3 5 5 5 13 9 5 5 4 2 2 3 3 3 3 6 14 13 13 10 6 5 6 7 4 9 11 12 12 14 17 14 11 16 18 18 15 13 11 10 8 8
2 2 3 2 3 10 8 5 4 7 5 3 5 4 4 4 10 6 8 7 7 7 8 8 10 5 5 7 5 6 12 14 10 11 12 11 12 12 9 8 5 8 2 1
6 4 4 5 5 7 13 12 8 3 3 2 2 1 8 8 8 5 2 6 8 6 7 4 7 9 9 6 6 6 4 5 4 6 9 9 10 9 7 4 4 3 2 3
Wind_Direction
282 188 196 244 228 241 254 254 226 127 149 92 326 311 295 284 182 176 171 169 173 177 170 172 177 183 177 176 181 178 183 196 185 180 173 152 166 204 207 236 262 270 348 338
285 259 224 246 263 264 276 292 89 138 162 97 139 267 277 266 193 176 177 171 172 177 170 171 178 184 181 178 181 181 190 192 195 203 164 170 206 214 214 219 216 287 310 301
246 161 28 276 275 273 263 218 124 156 186 109 148 167 290 221 122 155 222 178 174 176 170 174 180 181 182 186 198 190 191 202 216 204 166 198 207 166 161 174 213 274 294 323
242 191 185 249 249 275 44 35 6 154 150 146 216 208 181 248 338 162 231 184 177 178 174 178 179 179 184 194 198 191 197 201 205 178 186 207 220 207 198 227 226 255 294 324
241 243 226 217 263 317 273 3 346 297 79 99 15 80 313 30 7 360 330 178 183 185 175 178 184 184 189 193 194 194 190 189 191 192 185 203 213 196 205 216 223 239 262 290
267 272 326 291 320 285 355 318 293 271 136 55 92 46 350 53 305 301 303 332 238 191 179 181 186 189 191 195 194 192 193 191 194 193 192 202 215 196 208 214 213 227 197 212
273 250 238 162 305 318 293 301 316 356 62 181 151 45 226 212 284 313 300 294 283 207 197 184 188 188 189 191 195 192 192 197 200 201 197 209 204 198 205 208 207 208 226 226
261 276 207 199 184 235 286 255 170 325 146 138 32 324 270 34 325 290 276 271 265 222 198 192 192 190 191 196 195 196 196 199 204 213 212 208 212 207 206 210 213 219 237 229
341 331 148 180 179 174 271 323 256 91 32 69 188 250 307 102 157 248 247 255 257 227 191 195 196 195 191 193 196 200 201 203 210 217 220 212 212 214 213 217 214 200 222 240
318 337 229 164 40 304 232 273 348 3 127 82 310 284 251 22 211 145 63 65 61 179 190 189 199 198 192 192 196 203 204 204 208 215 222 220 215 216 218 217 211 206 213 218
343 291 292 100 188 213 281 286 269 179 132 142 173 279 349 292 87 139 129 119 262 249 212 192 198 202 192 195 196 203 205 206 207 214 221 218 220 219 220 220 210 208 209 220
347 256 318 259 274 202 225 221 203 126 350 93 126 340 341 351 112 102 143 163 193 195 197 201 193 196 196 195 198 204 206 207 215 225 224 226 228 229 224 229 227 223 219 220
340 326 345 338 1 334 10 314 357 16 101 182 116 304 293 328 341 137 151 182 208 287 251 209 201 198 205 198 200 204 207 210 217 222 221 226 229 228 230 233 235 235 236 232
146 254 204 175 186 231 330 342 296 60 86 102 130 169 203 257 286 355 48 69 56 53 72 201 214 207 191 205 212 213 211 217 214 214 220 226 234 241 240 240 239 238 242 243
300 316 353 325 25 232 35 11 354 68 21 112 157 160 203 178 148 43 36 36 42 31 46 69 103 173 151 182 216 206 207 204 207 215 218 227 238 251 256 255 254 254 251 253
346 334 4 329 131 254 234 132 200 347 67 107 126 134 184 176 139 108 97 68 52 43 32 49 76 104 113 115 128 145 146 148 171 191 218 246 254 257 264 261 263 260 261 267
334 348 9 305 346 337 69 12 22 35 62 127 129 152 140 95 81 91 94 86 76 61 38 52 48 55 78 104 128 163 167 90 68 152 174 244 263 241 237 240 243 244 249 254
286 318 336 275 7 356 266 308 357 336 47 107 114 117 121 130 113 106 104 101 99 90 63 70 70 58 60 58 329 350 326 288 281 246 247 254 252 267 263 246 241 242 244 243
231 241 320 148 271 277 59 19 2 332 37 96 121 129 132 142 128 103 98 107 107 111 83 84 59 48 37 36 38 54 80 300 280 241 219 209 241 250 258 259 254 253 251 245
336 348 127 336 322 291 125 28 4 37 37 36 58 88 86 80 99 181 113 118 112 113 120 107 50 18 354 354 347 352 323 261 194 213 208 234 284 279 275 269 266 256 256 270
66 339 258 213 209 107 17 20 339 34 196 72 76 64 74 76 101 93 88 110 133 177 162 147 280 281 290 306 341 340 253 234 244 237 243 260 269 271 282 275 274 262 263 268
86 29 325 314 219 87 351 28 90 165 95 84 93 82 82 90 108 99 135 235 236 230 234 250 282 264 246 265 286 315 236 215 236 249 233 234 248 260 250 263 292 294 266 249
50 119 153 71 177 178 82 85 74 74 112 94 79 87 147 151 310 235 200 236 211 206 326 238 233 13 301 277 287 287 193 253 253 244 238 251 269 276 263 264 275 278 268 270
36 38 75 75 174 148 100 100 100 96 77 32 350 310 275 102 27 82 74 66 71 98 92 21 339 318 259 276 284 267 262 288 293 256 258 270 266 264 266 284 287 293 296 281
258 98 83 324 257 141 161 156 87 89 83 353 309 305 311 146 118 104 44 68 53 7 357 354 3 317 296 298 305 269 271 278 268 264 266 292 304 301 295 290 279 310 345 254
271 225 161 211 163 120 140 135 138 132 154 156 325 173 89 110 88 55 360 58 39 24 22 334 340 341 344 303 270 253 237 238 246 292 298 315 309 283 289 3 9 268 168 123